sat.trackr.live / text

‹ back to catalog

STARLINK-3835

NORAD 52476 · 2022-049AB

PAYLOAD ACTIVE UNKNOWN

§ Identity

Operator
Country
US
Launch date
2022-05-06
Launch site
AFETR
Launch vehicle
Mass (kg)
RCS (m²)

Purposes: comms

External: N2YO · Heavens-Above · Gunter

§ Orbital elements

Epoch: 2026-05-25T04:26:43.821024Z

Period
95.44 min
Inclination
53.2129°
Eccentricity
0.0001567
Mean motion
15.08844154 rev/d
Perigee alt
538.6 km
Apogee alt
540.8 km
Semi-major
6,917.9 km
B*
-6.0590e-5
RAAN
65.9590°
Arg perigee
73.5097°
Mean anomaly
286.6067°
Rev number
22,517

§ Raw data

STARLINK-38351 52476U 22049AB  26145.18522941 -.00001252  00000+0 -60590-4 0  99962 52476  53.2129  65.9590 0001567  73.5097 286.6067 15.08844154225174

JSON: /api/v1/satellites/52476 · /tle

For live sub-satellite position, see the globe view (requires WebGL).

§ Visibility from observer

Set your observer location to see the next 7 days of passes ≥ 10°. The values pass through the URL so the page stays shareable.

No JS? Fill the form by hand. The geolocation button needs JavaScript.